Probability
0 0 0 0 0 1 1 1 1 1 1 6 13 18 20 22 25 29 30 29 28 27 29 32 32 29 26 26 25 24 25 26 25 23 23 23 21 19 17 16 14 14 12 10
0 0 0 0 0 1 1 2 2 2 3 9 17 21 23 25 26 28 28 28 27 26 28 31 31 28 25 25 23 23 24 23 23 23 24 24 22 21 19 17 15 13 11 9
0 0 0 0 1 1 2 2 2 3 6 12 19 23 26 28 29 28 27 28 28 27 29 31 30 27 26 25 23 21 21 19 20 22 23 23 22 23 21 18 15 12 9 8
1 0 0 1 1 2 1 1 2 4 8 14 18 22 26 29 30 30 31 32 32 30 30 31 28 26 26 25 23 20 19 18 18 20 20 21 21 22 21 17 13 11 8 7
1 0 0 1 1 1 1 1 3 6 12 16 18 20 25 29 31 34 36 37 35 31 30 31 29 26 26 26 23 20 19 19 18 17 18 19 20 20 20 17 13 10 8 7
1 0 0 1 2 1 1 2 6 10 15 20 22 24 29 32 34 36 37 37 33 29 29 30 30 30 30 28 24 20 19 19 18 16 18 19 19 19 19 18 15 11 9 8
1 0 1 2 4 6 8 11 12 14 20 25 28 31 33 34 34 32 32 31 28 26 27 28 29 30 31 29 25 21 18 18 17 17 17 18 18 19 19 19 16 12 10 10
3 3 4 5 7 12 18 21 17 16 22 27 29 30 31 32 32 30 26 23 22 22 24 24 25 26 26 25 23 20 19 18 18 17 16 15 18 20 20 19 17 14 12 11
6 6 6 7 9 13 17 19 17 17 19 21 22 23 24 26 29 28 22 18 18 19 21 21 21 20 20 19 17 16 17 17 17 16 14 15 18 19 18 16 14 12 10 7
7 6 5 5 7 9 10 12 13 13 13 14 16 17 19 23 25 23 19 16 16 17 18 18 17 15 15 15 14 14 15 15 16 15 13 15 18 17 14 11 10 8 6 4
7 5 3 3 3 4 6 8 8 8 9 11 14 16 17 20 21 18 15 15 15 15 15 14 12 11 12 12 14 15 14 14 14 13 12 13 15 13 10 8 6 4 4 3
5 4 3 2 1 2 4 4 5 6 8 11 14 15 16 19 19 16 14 16 16 14 12 11 11 10 10 11 12 14 14 12 11 10 10 10 10 9 7 5 3 2 2 1
3 2 1 0 0 1 3 4 4 5 7 9 11 12 15 18 20 17 16 18 17 14 11 11 10 9 9 10 12 14 14 11 8 6 6 7 8 8 8 5 4 2 1 0
1 0 0 0 0 1 4 6 6 5 6 7 8 10 13 18 20 19 19 20 19 15 12 10 9 8 8 9 11 14 13 10 7 6 5 6 7 8 9 8 6 4 3 2
0 0 0 0 0 1 3 5 6 6 6 6 7 8 12 16 18 18 18 20 19 15 11 8 8 8 8 8 9 11 10 8 7 6 5 5 5 5 6 7 6 5 4 3
1 0 0 0 0 1 3 4 5 6 6 6 6 9 12 14 15 15 15 16 16 13 10 9 10 9 8 7 7 8 7 6 5 5 4 4 3 3 3 4 5 4 3 2
1 1 1 1 1 2 3 3 4 5 5 5 7 10 12 12 13 14 13 12 11 10 8 9 11 11 9 8 7 7 6 5 4 4 3 3 3 3 3 4 4 3 2 1
1 1 2 2 1 1 3 3 3 4 4 4 7 9 11 11 13 14 12 10 8 7 6 6 8 10 9 8 8 7 6 6 4 3 3 3 3 3 3 3 4 3 2 1
0 1 1 1 1 1 3 4 4 4 4 4 6 8 9 10 11 11 10 8 6 6 5 5 5 5 6 7 7 6 6 5 4 3 3 3 3 3 3 3 3 3 1 0
1 1 1 0 1 1 3 5 5 5 4 4 5 6 7 7 7 7 7 5 4 4 5 4 3 2 3 4 5 5 4 4 3 3 3 3 3 3 3 3 3 2 1 0
2 2 1 1 2 3 4 4 4 4 4 3 3 4 5 5 5 6 6 5 4 3 3 2 2 2 2 3 4 4 3 3 3 4 4 3 3 3 3 3 3 2 1 0
2 2 2 3 5 6 5 4 2 2 1 1 1 2 4 5 5 6 7 6 5 2 1 1 2 3 2 2 3 3 3 3 4 5 5 4 3 3 3 3 3 2 1 0
2 2 3 4 5 6 5 4 2 1 0 0 0 2 3 4 4 4 6 6 4 1 0 1 2 2 2 2 2 2 2 3 3 4 5 5 4 3 3 3 3 2 1 0
2 2 3 2 2 3 3 3 2 1 1 0 0 1 3 3 3 3 4 3 1 1 0 0 1 1 1 2 1 1 2 3 3 3 4 5 4 3 3 3 2 1 0 0
2 1 1 0 0 1 1 1 1 0 0 0 0 1 1 2 2 2 2 1 0 0 1 0 0 0 1 1 1 1 2 3 3 3 3 4 3 3 3 2 1 0 0 0
1 0 0 0 0 0 0 0 0 0 0 0 0 0 0 1 1 1 2 2 1 1 1 0 0 0 0 0 0 1 2 3 3 3 3 3 3 3 2 1 0 0 0 0
0 0 0 0 0 0 0 0 0 0 0 0 0 0 1 1 1 1 2 3 2 2 1 0 0 0 0 0 0 1 2 3 3 3 3 3 3 2 1 0 0 0 0 0
Wind_Speed
11 12 12 11 12 11 10 9 9 7 5 3 3 5 5 5 6 6 5 5 4 3 3 3 3 3 2 2 2 2 3 3 3 3 2 2 2 2 2 2 2 2 2 2
11 13 12 11 12 11 10 9 9 8 3 2 5 5 5 4 4 5 5 4 3 3 3 3 2 2 2 2 2 1 2 2 2 3 3 2 2 2 2 2 2 2 2 2
11 12 12 12 9 8 6 7 8 7 2 2 4 4 4 4 3 3 3 3 4 4 3 2 2 1 1 1 1 2 2 2 2 3 3 3 3 2 2 2 2 2 2 2
10 10 12 6 4 5 6 5 5 3 1 1 3 5 5 4 3 3 3 4 4 3 2 2 1 0 0 1 1 2 2 2 2 2 2 2 2 2 2 2 2 2 2 3
8 10 10 7 4 5 6 4 4 3 2 3 3 4 4 5 5 5 5 4 3 2 2 2 1 0 0 0 1 1 2 2 1 1 1 2 2 2 2 2 2 2 2 2
9 10 10 4 2 4 5 4 2 2 2 3 2 1 4 6 6 5 5 4 3 2 2 2 1 1 0 1 1 1 1 1 1 1 1 2 2 2 2 2 3 3 2 2
11 11 7 5 3 2 3 2 3 3 3 3 3 4 5 5 5 5 5 3 3 3 2 2 1 1 0 1 1 2 2 2 1 1 2 1 1 1 2 2 2 3 2 2
8 9 5 6 4 3 3 4 4 3 3 5 5 5 5 5 5 5 4 3 3 2 2 1 1 0 1 1 2 2 2 2 2 1 2 1 1 1 2 2 2 3 2 2
3 2 2 4 4 3 2 2 3 2 3 3 3 4 4 4 4 3 3 2 2 2 2 1 1 0 1 1 2 2 2 2 2 2 2 1 1 2 2 2 2 2 2 3
4 3 2 2 2 1 1 2 2 2 1 2 3 3 3 4 3 3 2 2 1 1 1 1 0 1 1 1 1 1 2 2 2 1 1 1 1 2 2 2 2 2 2 2
5 5 5 4 3 1 2 2 1 1 0 1 3 3 3 3 3 2 2 1 1 1 0 0 0 0 1 1 1 2 2 2 2 2 2 1 1 2 2 1 1 2 2 2
5 4 4 4 3 1 1 1 1 1 0 1 2 2 3 3 3 2 2 1 1 1 1 1 1 1 1 1 2 2 2 2 2 2 2 2 2 1 1 1 1 2 2 2
4 5 4 3 3 2 1 1 1 1 1 1 1 2 2 2 3 2 2 2 1 1 1 1 1 1 1 1 1 1 2 2 2 2 2 2 3 2 2 1 1 3 3 3
3 3 3 3 2 1 1 1 1 0 0 0 1 1 1 1 2 1 1 1 1 1 2 1 1 1 1 1 1 2 2 1 2 2 2 2 2 2 2 2 2 1 2 4
4 4 3 3 3 2 2 1 1 1 1 1 1 1 2 2 1 1 1 1 1 2 2 2 1 1 1 1 1 2 2 2 2 2 2 2 2 2 2 2 1 1 1 2
4 3 3 4 3 2 2 2 2 1 1 1 1 1 2 1 1 1 1 1 1 2 2 1 1 1 1 1 2 2 2 2 3 3 3 2 2 2 2 1 1 1 1 0
4 4 5 5 4 3 2 3 3 1 1 1 1 1 1 1 1 1 1 0 1 2 1 2 2 2 2 2 2 3 3 2 3 3 3 3 2 2 1 1 1 1 1 0
4 4 3 4 4 4 3 3 2 2 2 1 1 1 1 1 1 1 1 1 0 1 1 1 2 3 3 2 2 3 4 3 3 2 2 2 2 2 2 2 2 2 1 1
4 4 3 3 3 3 3 3 2 1 2 2 2 2 1 1 1 1 1 2 2 2 1 1 2 3 3 1 2 3 4 4 3 2 2 2 3 3 3 3 2 2 2 1
3 2 2 3 3 2 1 2 2 2 2 2 2 2 2 1 1 1 1 2 1 1 1 1 2 3 3 1 3 4 5 4 4 3 2 2 2 2 2 2 3 2 2 1
3 3 3 2 2 1 1 2 3 3 2 2 2 2 2 2 2 2 3 2 1 1 2 2 2 2 2 2 3 5 5 4 4 3 2 3 2 2 2 2 2 2 2 2
3 2 2 1 1 1 2 3 3 4 3 3 3 3 3 3 4 3 3 3 2 2 2 2 2 1 1 3 4 4 4 4 3 2 2 2 2 2 2 2 2 2 2 2
3 3 2 2 2 2 3 3 3 4 4 4 4 3 3 3 3 3 3 2 2 3 3 2 1 2 2 4 4 4 4 3 3 3 2 2 2 2 2 2 2 2 2 2
2 3 3 3 3 3 3 3 3 3 3 3 3 3 3 3 3 3 2 3 4 4 3 2 4 4 4 4 4 4 3 3 3 2 2 2 2 1 1 1 1 2 2 3
3 4 4 4 4 3 3 3 4 4 4 3 4 4 3 2 2 2 2 3 5 4 3 4 6 6 5 4 4 3 2 2 2 2 2 2 2 1 1 1 1 1 2 2
4 4 4 4 4 3 3 4 4 3 3 3 3 2 2 2 3 3 3 4 5 5 4 3 3 4 4 4 3 2 2 1 1 2 2 2 2 2 1 1 2 1 2 2
4 4 3 4 4 4 4 3 3 3 2 2 2 2 2 2 2 2 2 2 2 3 3 3 3 3 3 2 2 2 2 2 2 1 2 2 2 1 1 1 1 1 1 1
Wind_Direction
273 279 280 280 283 270 263 259 264 261 239 210 139 135 129 124 128 130 131 116 116 119 109 116 120 126 140 141 142 165 176 179 177 183 196 208 223 234 233 233 238 243 250 258
275 273 272 270 269 269 266 272 268 271 271 119 126 125 128 128 135 131 132 131 129 114 111 114 122 139 154 163 170 171 190 200 184 185 198 208 220 223 225 234 244 249 246 253
272 274 282 264 264 265 267 278 282 295 313 110 125 128 124 119 125 128 119 112 99 95 99 113 111 96 188 180 181 194 208 208 202 199 203 210 225 224 232 233 236 248 245 240
273 277 267 269 295 291 284 295 308 331 10 87 114 116 106 96 90 97 102 103 90 86 88 97 101 99 251 206 201 212 223 224 214 216 208 212 222 225 233 239 239 239 239 239
269 267 263 264 288 307 296 289 323 344 50 76 102 126 105 88 79 75 76 84 90 99 101 106 114 29 40 221 240 259 260 257 233 229 218 217 220 227 234 235 247 242 234 230
261 270 269 281 322 308 284 251 1 35 51 61 70 218 102 87 85 83 81 83 94 102 100 96 96 70 339 271 290 299 307 294 275 266 258 245 225 221 230 232 241 244 236 233
256 262 273 337 342 342 275 332 32 39 49 64 61 67 106 107 95 93 91 90 95 92 88 88 84 72 27 344 338 335 332 313 302 279 264 248 223 217 228 238 244 249 236 236
258 258 267 5 352 26 39 36 44 40 52 80 90 98 106 109 109 108 103 107 105 101 97 101 94 62 44 11 347 348 355 345 325 304 282 273 259 254 246 243 242 247 247 254
274 286 15 22 44 56 39 39 42 41 62 101 106 111 112 110 112 121 129 122 113 116 121 128 124 41 350 2 350 340 335 326 324 329 312 285 260 258 251 245 250 252 247 251
280 269 296 358 17 88 66 49 45 44 71 125 126 128 125 122 119 119 120 121 120 131 141 115 86 15 354 347 342 313 288 290 286 274 274 280 257 259 252 249 260 272 268 269
280 292 304 323 340 7 91 78 47 27 205 159 144 133 121 121 121 120 117 116 162 166 216 134 155 302 309 314 303 291 271 246 246 248 241 264 280 296 278 303 267 263 292 294
296 320 311 314 321 4 67 69 50 23 18 84 106 110 118 124 123 134 152 169 180 175 222 256 234 205 233 258 265 274 268 254 249 239 225 225 217 259 329 260 254 235 239 262
301 300 303 302 329 4 25 8 330 222 230 150 120 116 126 132 138 157 176 191 203 221 247 248 254 250 240 231 246 263 285 287 276 268 244 236 222 221 224 222 227 244 248 252
285 287 282 291 306 319 315 270 257 179 347 139 125 125 124 127 144 175 205 213 246 278 276 275 285 323 334 336 319 292 281 263 267 269 264 256 250 252 244 234 240 250 240 233
271 270 266 276 280 287 293 278 235 206 201 170 153 165 159 164 175 249 288 266 239 253 271 294 310 325 327 302 298 281 278 282 281 292 283 276 274 267 263 263 274 270 228 194
254 259 262 265 268 275 293 300 282 241 202 207 203 184 172 182 193 208 241 264 282 278 305 317 320 321 307 301 301 277 252 260 270 279 286 287 277 279 286 278 280 287 293 300
259 262 260 262 261 257 264 275 277 264 258 243 216 204 203 206 203 206 230 208 310 302 321 340 330 312 287 280 288 284 278 261 250 267 275 283 285 283 290 285 274 270 275 291
271 277 279 278 271 264 257 260 267 271 269 272 275 236 225 247 252 234 254 247 219 258 280 301 302 296 287 277 282 281 282 277 257 253 271 293 304 303 295 286 279 278 263 194
259 261 253 261 270 269 270 271 253 268 276 269 245 228 219 247 268 247 231 232 242 247 267 284 264 270 282 285 280 270 271 274 270 252 258 259 261 275 288 295 286 277 281 265
284 274 270 265 265 262 262 276 276 251 255 254 251 252 251 249 256 272 269 249 249 271 279 285 278 277 284 299 274 270 267 271 276 265 251 256 264 272 280 292 298 293 284 279
310 289 273 264 265 269 268 276 281 272 266 256 252 257 254 253 249 248 251 246 233 288 271 225 238 257 287 295 266 268 268 269 271 273 273 273 272 273 277 292 300 304 305 306
313 314 311 297 289 281 276 271 269 266 261 254 248 243 241 239 237 230 226 235 210 171 233 247 243 238 254 280 274 272 274 281 283 280 279 279 282 292 299 312 316 327 336 336
321 317 299 285 275 271 272 272 275 273 259 254 251 247 247 257 256 244 227 203 188 184 226 250 169 173 225 251 268 275 281 284 289 291 281 276 281 291 303 321 331 339 345 338
296 292 290 282 270 262 264 268 273 274 269 270 263 251 243 242 241 233 217 170 175 188 228 185 183 208 232 251 266 270 277 280 279 286 303 301 285 288 303 314 316 322 328 329
275 274 274 271 264 256 252 255 255 252 244 237 239 240 243 251 245 220 206 181 169 189 219 204 204 217 236 257 267 271 270 286 296 305 308 307 302 296 283 287 307 322 329 330
270 268 264 261 270 272 256 249 245 240 241 242 240 238 235 220 224 224 215 202 189 199 223 217 196 202 228 249 266 282 283 273 270 280 305 303 302 307 309 319 319 313 324 342
257 254 250 247 247 253 258 256 252 249 250 251 256 252 238 230 223 228 230 221 200 210 226 224 213 214 228 244 262 280 283 284 284 278 277 284 294 298 305 305 305 317 324 331